| time (UTC) | temp F | wind direction | speed MPH | gust MPH | rain 1hr in | rain 24hr in | rain mn in | humidity % | barometer mb |
| 20260505052216 | 64 | 226 | 6.0 | 8.0 | 0.00 | 0.00 | 0.00 | 59 | 1002.4 |
| 20260505051713 | 65 | 222 | 2.0 | 2.0 | 0.00 | 0.00 | 0.00 | 58 | 1002.5 |
| 20260505051211 | 64 | 225 | 3.0 | 6.0 | 0.00 | 0.00 | 0.00 | 57 | 1002.5 |
| 20260505050709 | 65 | 231 | 3.0 | 4.0 | 0.00 | 0.00 | 0.00 | 57 | 1002.4 |
| 20260505050207 | 64 | 199 | 4.0 | 6.0 | 0.00 | 0.00 | 0.00 | 57 | 1002.4 |
| 20260505041637 | 63 | 252 | 2.0 | 2.0 | 0.00 | 0.00 | 0.00 | 56 | 1002.5 |
| 20260505041134 | 63 | 257 | 2.0 | 2.0 | 0.00 | 0.00 | 0.00 | 55 | 1002.3 |
| 20260505040631 | 63 | 258 | 2.0 | 2.0 | 0.00 | 0.00 | 0.00 | 54 | 1002.5 |
| 20260505040128 | 63 | 259 | 1.0 | 2.0 | 0.00 | 0.00 | 0.00 | 53 | 1002.4 |
| 20260505035624 | 63 | 231 | 2.0 | 3.0 | 0.00 | 0.00 | 0.00 | 53 | 1002.8 |
| 20260505035121 | 64 | 225 | 2.0 | 2.0 | 0.00 | 0.00 | 0.00 | 52 | 1002.6 |
| 20260505034617 | 64 | 225 | 1.0 | 2.0 | 0.00 | 0.00 | 0.00 | 52 | 1002.8 |
| 20260505034114 | 64 | 225 | 2.0 | 3.0 | 0.00 | 0.00 | 0.00 | 51 | 1002.7 |
| 20260505033611 | 65 | 238 | 1.0 | 2.0 | 0.00 | 0.00 | 0.00 | 52 | 1002.8 |
| 20260505033110 | 65 | 241 | 1.0 | 2.0 | 0.00 | 0.00 | 0.00 | 51 | 1003.1 |
| 20260505032607 | 65 | 241 | 2.0 | 2.0 | 0.00 | 0.00 | 0.00 | 50 | 1003.1 |
| 20260505032103 | 66 | 221 | 3.0 | 8.0 | 0.00 | 0.00 | 0.00 | 49 | 1003.3 |
| 20260505031601 | 66 | 245 | 4.0 | 6.0 | 0.00 | 0.00 | 0.00 | 48 | 1003.3 |
| 20260505031057 | 66 | 243 | 3.0 | 6.0 | 0.00 | 0.00 | 0.00 | 46 | 1003.1 |
| 20260505030554 | 66 | 241 | 2.0 | 6.0 | 0.00 | 0.00 | 0.00 | 44 | 1003.1 |
| 20260505030050 | 65 | 250 | 4.0 | 9.0 | 0.00 | 0.00 | 0.00 | 44 | 1003.1 |
| 20260505025545 | 63 | 247 | 11.0 | 15.0 | 0.00 | 0.00 | 0.00 | 45 | 1003.0 |
| 20260505025045 | 63 | 235 | 1.0 | 1.0 | 0.00 | 0.00 | 0.00 | 45 | 1002.7 |
| 20260505024541 | 63 | 237 | 1.0 | 1.0 | 0.00 | 0.00 | 0.00 | 46 | 1002.9 |
| 20260505024038 | 62 | 237 | 1.0 | 1.0 | 0.00 | 0.00 | 0.00 | 46 | 1002.9 |
| 20260505023535 | 62 | 237 | 0.0 | 1.0 | 0.00 | 0.00 | 0.00 | 50 | 1003.0 |
| 20260505023033 | 62 | 237 | 1.0 | 1.0 | 0.00 | 0.00 | 0.00 | 47 | 1002.9 |
| 20260505022531 | 62 | 237 | 1.0 | 1.0 | 0.00 | 0.00 | 0.00 | 48 | 1003.0 |
| 20260505022028 | 62 | 237 | 0.0 | 2.0 | 0.00 | 0.00 | 0.00 | 47 | 1003.2 |
| 20260505021524 | 62 | 245 | 1.0 | 1.0 | 0.00 | 0.00 | 0.00 | 51 | 1003.1 |
| 20260505021021 | 62 | 245 | 0.0 | 1.0 | 0.00 | 0.00 | 0.00 | 49 | 1003.1 |
| 20260505020520 | 62 | 245 | 1.0 | 1.0 | 0.00 | 0.00 | 0.00 | 49 | 1003.1 |
| 20260505020018 | 62 | 245 | 0.0 | 1.0 | 0.00 | 0.00 | 0.00 | 50 | 1003.1 |
| 20260505015515 | 61 | 245 | 0.0 | 4.0 | 0.00 | 0.00 | 0.00 | 50 | 1003.0 |
| 20260505015012 | 61 | 244 | 0.0 | 1.0 | 0.00 | 0.00 | 0.00 | 53 | 1003.3 |
| 20260505014509 | 61 | 244 | 0.0 | 1.0 | 0.00 | 0.00 | 0.00 | 50 | 1003.1 |
| 20260505014006 | 61 | 244 | 0.0 | 0.0 | 0.00 | 0.00 | 0.00 | 51 | 1003.2 |
| 20260505013503 | 60 | 245 | 0.0 | 1.0 | 0.00 | 0.00 | 0.00 | 51 | 1003.3 |
| 20260505013000 | 60 | 245 | 0.0 | 1.0 | 0.00 | 0.00 | 0.00 | 52 | 1003.4 |
| 20260505012458 | 60 | 245 | 1.0 | 1.0 | 0.00 | 0.00 | 0.00 | 54 | 1003.2 |
| 20260505011955 | 60 | 245 | 0.0 | 1.0 | 0.00 | 0.00 | 0.00 | 54 | 1003.2 |
| 20260505011450 | 60 | 245 | 0.0 | 1.0 | 0.00 | 0.00 | 0.00 | 54 | 1003.2 |
| 20260505010948 | 60 | 245 | 0.0 | 0.0 | 0.00 | 0.00 | 0.00 | 54 | 1003.0 |
| 20260505010443 | 60 | 245 | 0.0 | 0.0 | 0.00 | 0.00 | 0.00 | 54 | 1003.2 |
| 20260505005939 | 61 | 245 | 0.0 | 0.0 | 0.00 | 0.00 | 0.00 | 51 | 1003.2 |
| 20260505005436 | 61 | 245 | 0.0 | 0.0 | 0.00 | 0.00 | 0.00 | 50 | 1003.0 |
| 20260505004934 | 62 | 245 | 0.0 | 0.0 | 0.00 | 0.00 | 0.00 | 52 | 1003.0 |
| 20260505004431 | 62 | 245 | 0.0 | 0.0 | 0.00 | 0.00 | 0.00 | 49 | 1003.3 |
| 20260505003928 | 62 | 245 | 0.0 | 0.0 | 0.00 | 0.00 | 0.00 | 47 | 1003.1 |
| 20260505003425 | 63 | 245 | 0.0 | 1.0 | 0.00 | 0.00 | 0.00 | 48 | 1003.1 |
| 20260505002921 | 64 | 245 | 0.0 | 0.0 | 0.00 | 0.00 | 0.00 | 47 | 1003.0 |
| 20260505002417 | 64 | 245 | 0.0 | 0.0 | 0.00 | 0.00 | 0.00 | 45 | 1003.1 |
| 20260505001916 | 65 | 245 | 1.0 | 1.0 | 0.00 | 0.00 | 0.00 | 42 | 1003.0 |
| 20260505001413 | 66 | 245 | 0.0 | 0.0 | 0.00 | 0.00 | 0.00 | 42 | 1003.1 |
| 20260505000910 | 67 | 245 | 1.0 | 2.0 | 0.00 | 0.00 | 0.00 | 42 | 1003.2 |
| 20260505000408 | 67 | 245 | 0.0 | 0.0 | 0.00 | 0.00 | 0.00 | 40 | 1003.1 |
| 20260504235904 | 68 | 245 | 1.0 | 1.0 | 0.00 | 0.00 | 0.00 | 40 | 1003.1 |
| 20260504235402 | 69 | 246 | 0.0 | 0.0 | 0.00 | 0.00 | 0.00 | 38 | 1003.1 |
| 20260504234857 | 69 | 246 | 1.0 | 2.0 | 0.00 | 0.00 | 0.00 | 35 | 1003.2 |
| 20260504234355 | 69 | 247 | 1.0 | 1.0 | 0.00 | 0.00 | 0.00 | 37 | 1003.2 |
| 20260504233852 | 70 | 247 | 1.0 | 1.0 | 0.00 | 0.00 | 0.00 | 37 | 1003.2 |
| 20260504233348 | 70 | 247 | 1.0 | 1.0 | 0.00 | 0.00 | 0.00 | 34 | 1003.2 |
| 20260504232844 | 71 | 247 | 1.0 | 2.0 | 0.00 | 0.00 | 0.00 | 35 | 1003.2 |
| 20260504232342 | 70 | 242 | 2.0 | 2.0 | 0.00 | 0.00 | 0.00 | 33 | 1003.2 |
| 20260504231838 | 71 | 241 | 0.0 | 1.0 | 0.00 | 0.00 | 0.00 | 34 | 1003.2 |
| 20260504231335 | 71 | 241 | 1.0 | 3.0 | 0.00 | 0.00 | 0.00 | 33 | 1003.4 |
| 20260504230831 | 71 | 250 | 1.0 | 2.0 | 0.00 | 0.00 | 0.00 | 33 | 1003.3 |
| 20260504230329 | 71 | 249 | 1.0 | 1.0 | 0.00 | 0.00 | 0.00 | 32 | 1003.0 |
| 20260504225828 | 71 | 255 | 0.0 | 2.0 | 0.00 | 0.00 | 0.00 | 32 | 1003.2 |
| 20260504225323 | 72 | 255 | 2.0 | 6.0 | 0.00 | 0.00 | 0.00 | 31 | 1003.2 |
| 20260504224821 | 72 | 266 | 2.0 | 4.0 | 0.00 | 0.00 | 0.00 | 31 | 1003.2 |
| 20260504224318 | 72 | 254 | 1.0 | 2.0 | 0.00 | 0.00 | 0.00 | 32 | 1003.3 |
| 20260504223815 | 72 | 257 | 4.0 | 6.0 | 0.00 | 0.00 | 0.00 | 31 | 1003.0 |
| 20260504223310 | 72 | 263 | 4.0 | 7.0 | 0.00 | 0.00 | 0.00 | 30 | 1002.9 |
| 20260504222807 | 72 | 271 | 3.0 | 7.0 | 0.00 | 0.00 | 0.00 | 30 | 1003.1 |
| 20260504222305 | 72 | 253 | 3.0 | 9.0 | 0.00 | 0.00 | 0.00 | 30 | 1002.8 |
| 20260504221802 | 73 | 247 | 2.0 | 2.0 | 0.00 | 0.00 | 0.00 | 31 | 1003.1 |
| 20260504221258 | 73 | 228 | 4.0 | 8.0 | 0.00 | 0.00 | 0.00 | 29 | 1003.2 |
| 20260504220755 | 73 | 283 | 3.0 | 4.0 | 0.00 | 0.00 | 0.00 | 30 | 1003.1 |
| 20260504220252 | 74 | 249 | 3.0 | 4.0 | 0.00 | 0.00 | 0.00 | 30 | 1003.0 |
| 20260504215749 | 73 | 287 | 5.0 | 7.0 | 0.00 | 0.00 | 0.00 | 29 | 1002.9 |
| 20260504215246 | 74 | 245 | 2.0 | 7.0 | 0.00 | 0.00 | 0.00 | 31 | 1003.0 |
| 20260504214742 | 74 | 293 | 4.0 | 8.0 | 0.00 | 0.00 | 0.00 | 29 | 1003.0 |
| 20260504214238 | 74 | 237 | 6.0 | 10.0 | 0.00 | 0.00 | 0.00 | 29 | 1003.2 |
| 20260504213735 | 73 | 243 | 6.0 | 9.0 | 0.00 | 0.00 | 0.00 | 30 | 1003.1 |
| 20260504213232 | 74 | 241 | 6.0 | 11.0 | 0.00 | 0.00 | 0.00 | 29 | 1003.2 |
| 20260504212729 | 74 | 243 | 4.0 | 4.0 | 0.00 | 0.00 | 0.00 | 30 | 1003.0 |
| 20260504212225 | 74 | 222 | 4.0 | 9.0 | 0.00 | 0.00 | 0.00 | 29 | 1003.2 |
| 20260504211723 | 74 | 255 | 4.0 | 10.0 | 0.00 | 0.00 | 0.00 | 29 | 1003.3 |
| 20260504211219 | 74 | 263 | 8.0 | 9.0 | 0.00 | 0.00 | 0.00 | 29 | 1003.3 |
| 20260504210717 | 74 | 308 | 3.0 | 8.0 | 0.00 | 0.00 | 0.00 | 30 | 1003.3 |
| 20260504210214 | 74 | 271 | 3.0 | 7.0 | 0.00 | 0.00 | 0.00 | 31 | 1003.2 |
| 20260504205711 | 74 | 271 | 6.0 | 8.0 | 0.00 | 0.00 | 0.00 | 30 | 1003.2 |
| 20260504205208 | 74 | 222 | 5.0 | 9.0 | 0.00 | 0.00 | 0.00 | 31 | 1003.1 |
| 20260504204706 | 74 | 210 | 5.0 | 9.0 | 0.00 | 0.00 | 0.00 | 31 | 1003.3 |
| 20260504204205 | 74 | 236 | 3.0 | 8.0 | 0.00 | 0.00 | 0.00 | 32 | 1003.1 |
| 20260504203703 | 74 | 234 | 6.0 | 13.0 | 0.00 | 0.00 | 0.00 | 32 | 1003.4 |
| 20260504203201 | 75 | 219 | 5.0 | 10.0 | 0.00 | 0.00 | 0.00 | 32 | 1003.2 |
| 20260504202700 | 74 | 264 | 2.0 | 3.0 | 0.00 | 0.00 | 0.00 | 34 | 1003.5 |
| 20260504202158 | 73 | 197 | 5.0 | 6.0 | 0.00 | 0.00 | 0.00 | 33 | 1003.4 |
| 20260504201654 | 73 | 261 | 6.0 | 10.0 | 0.00 | 0.00 | 0.00 | 33 | 1003.6 |
| 20260504201152 | 73 | 249 | 4.0 | 9.0 | 0.00 | 0.00 | 0.00 | 33 | 1003.5 |
| 20260504200649 | 73 | 228 | 6.0 | 11.0 | 0.00 | 0.00 | 0.00 | 32 | 1003.7 |
| 20260504200146 | 74 | 202 | 4.0 | 11.0 | 0.00 | 0.00 | 0.00 | 32 | 1003.4 |
| 20260504195642 | 74 | 232 | 3.0 | 4.0 | 0.00 | 0.00 | 0.00 | 36 | 1003.8 |
| 20260504195138 | 73 | 231 | 3.0 | 7.0 | 0.00 | 0.00 | 0.00 | 35 | 1003.9 |
| 20260504194635 | 73 | 251 | 11.0 | 13.0 | 0.00 | 0.00 | 0.00 | 34 | 1003.9 |
| 20260504194131 | 74 | 272 | 6.0 | 8.0 | 0.00 | 0.00 | 0.00 | 35 | 1004.0 |
| 20260504193627 | 74 | 241 | 3.0 | 6.0 | 0.00 | 0.00 | 0.00 | 33 | 1004.1 |
| 20260504193126 | 72 | 249 | 4.0 | 4.0 | 0.00 | 0.00 | 0.00 | 36 | 1004.1 |
| 20260504192623 | 72 | 258 | 4.0 | 7.0 | 0.00 | 0.00 | 0.00 | 36 | 1004.3 |
| 20260504192121 | 73 | 276 | 11.0 | 13.0 | 0.00 | 0.00 | 0.00 | 34 | 1004.4 |
| 20260504191620 | 72 | 247 | 7.0 | 13.0 | 0.00 | 0.00 | 0.00 | 36 | 1004.3 |
| 20260504191115 | 71 | 248 | 3.0 | 11.0 | 0.00 | 0.00 | 0.00 | 37 | 1004.5 |
| 20260504190612 | 72 | 223 | 6.0 | 11.0 | 0.00 | 0.00 | 0.00 | 35 | 1004.5 |
| 20260504190108 | 72 | 258 | 3.0 | 11.0 | 0.00 | 0.00 | 0.00 | 37 | 1004.6 |
| 20260504185605 | 73 | 251 | 6.0 | 9.0 | 0.00 | 0.00 | 0.00 | 35 | 1004.3 |
| 20260504185101 | 72 | 234 | 2.0 | 13.0 | 0.00 | 0.00 | 0.00 | 37 | 1004.6 |
| 20260504184557 | 71 | 270 | 3.0 | 8.0 | 0.00 | 0.00 | 0.00 | 40 | 1004.8 |
| 20260504184052 | 71 | 234 | 6.0 | 14.0 | 0.00 | 0.00 | 0.00 | 38 | 1004.9 |
| 20260504183549 | 71 | 262 | 4.0 | 6.0 | 0.00 | 0.00 | 0.00 | 37 | 1005.0 |
| 20260504183048 | 71 | 263 | 7.0 | 14.0 | 0.00 | 0.00 | 0.00 | 37 | 1004.8 |
| 20260504182544 | 71 | 235 | 5.0 | 10.0 | 0.00 | 0.00 | 0.00 | 41 | 1004.9 |
| 20260504182042 | 71 | 238 | 4.0 | 13.0 | 0.00 | 0.00 | 0.00 | 38 | 1004.8 |
| 20260504181539 | 71 | 241 | 4.0 | 7.0 | 0.00 | 0.00 | 0.00 | 38 | 1005.2 |
| 20260504181037 | 70 | 218 | 6.0 | 8.0 | 0.00 | 0.00 | 0.00 | 39 | 1005.0 |
| 20260504180536 | 70 | 269 | 4.0 | 9.0 | 0.00 | 0.00 | 0.00 | 39 | 1005.1 |
| 20260504180034 | 70 | 220 | 4.0 | 8.0 | 0.00 | 0.00 | 0.00 | 42 | 1005.2 |
| 20260504175531 | 70 | 287 | 5.0 | 9.0 | 0.00 | 0.00 | 0.00 | 40 | 1005.3 |
| 20260504175028 | 70 | 263 | 4.0 | 8.0 | 0.00 | 0.00 | 0.00 | 40 | 1005.4 |
| 20260504174526 | 70 | 211 | 5.0 | 9.0 | 0.00 | 0.00 | 0.00 | 41 | 1005.5 |
| 20260504174022 | 70 | 260 | 6.0 | 9.0 | 0.00 | 0.00 | 0.00 | 39 | 1005.4 |
| 20260504173519 | 69 | 225 | 3.0 | 4.0 | 0.00 | 0.00 | 0.00 | 42 | 1005.4 |
| 20260504173017 | 69 | 282 | 2.0 | 6.0 | 0.00 | 0.00 | 0.00 | 40 | 1005.3 |
| 20260504172513 | 69 | 250 | 5.0 | 8.0 | 0.00 | 0.00 | 0.00 | 39 | 1005.5 |
| 20260504172009 | 69 | 227 | 3.0 | 4.0 | 0.00 | 0.00 | 0.00 | 41 | 1005.5 |
| 20260504171506 | 69 | 224 | 4.0 | 4.0 | 0.00 | 0.00 | 0.00 | 41 | 1005.5 |
| 20260504171003 | 69 | 257 | 3.0 | 10.0 | 0.00 | 0.00 | 0.00 | 39 | 1005.5 |
| 20260504170459 | 68 | 234 | 4.0 | 6.0 | 0.00 | 0.00 | 0.00 | 44 | 1005.5 |
| 20260504160419 | 67 | 147 | 4.0 | 6.0 | 0.00 | 0.00 | 0.00 | 42 | 1005.8 |
| 20260504150843 | 65 | 228 | 9.0 | 11.0 | 0.00 | 0.00 | 0.00 | 42 | 1006.4 |
| 20260504150339 | 64 | 265 | 6.0 | 10.0 | 0.00 | 0.00 | 0.00 | 42 | 1006.5 |
| 20260504141309 | 63 | 212 | 1.0 | 9.0 | 0.00 | 0.00 | 0.00 | 45 | 1006.4 |
| 20260504140806 | 62 | 262 | 5.0 | 9.0 | 0.00 | 0.00 | 0.00 | 43 | 1006.5 |
| 20260504140302 | 63 | 255 | 3.0 | 14.0 | 0.00 | 0.00 | 0.00 | 43 | 1006.5 |
| 20260504130731 | 60 | 228 | 2.0 | 10.0 | 0.00 | 0.00 | 0.00 | 45 | 1006.8 |
| 20260504130226 | 60 | 228 | 2.0 | 3.0 | 0.00 | 0.00 | 0.00 | 46 | 1006.9 |
| 20260504120150 | 57 | 257 | 3.0 | 6.0 | 0.00 | 0.00 | 0.00 | 48 | 1007.0 |
| 20260504110618 | 55 | 238 | 4.0 | 6.0 | 0.00 | 0.00 | 0.00 | 48 | 1007.1 |
| 20260504110114 | 55 | 234 | 3.0 | 3.0 | 0.00 | 0.00 | 0.00 | 49 | 1006.9 |
| 20260504100539 | 54 | 250 | 2.0 | 3.0 | 0.00 | 0.00 | 0.00 | 49 | 1006.6 |
| 20260504081933 | 53 | 237 | 3.0 | 3.0 | 0.00 | 0.00 | 0.00 | 54 | 1007.7 |
| 20260504081430 | 53 | 237 | 3.0 | 3.0 | 0.00 | 0.00 | 0.00 | 54 | 1007.7 |
| 20260504080926 | 53 | 231 | 3.0 | 3.0 | 0.00 | 0.00 | 0.00 | 56 | 1007.6 |
| 20260504080423 | 53 | 231 | 3.0 | 3.0 | 0.00 | 0.00 | 0.00 | 56 | 1007.4 |
| 20260504070350 | 53 | 286 | 6.0 | 7.0 | 0.00 | 0.00 | 0.00 | 55 | 1008.1 |